Weather in Americus

United States     32°04′18″N   84°13′57″W
В апреле 2022 года жителям России запретили посещать сайт meteo.paraplan.net по решению Генеральной прокуратуры. Аудитория сайта уменьшилась в 10 раз. Владельцы сайта не видят смысла в поддержке погодного сервера в таких условиях. Сайт будет закрыт в октябре.
temp.,
°C
wind,
m/s
gust,
m/s
humid.,
%
clouds,
%
prec.,
mm/h
press.,
hPa
HPBL,
m
4 october, tue
tue423:00+14e34830 0.0 101951
02:00+12e23910 0.0 102042
05:00+11ene22930 0.0 101930
08:00+11ne34940 0.0 102077
11:00+20ene44520 0.0 1021850
14:00+25ne23345 0.0 10181744
17:00+26n333076 0.0 10162022
20:00+19nnw225027 0.0 101716
5 october, wed
wed523:00+17s115823 0.0 101711
02:00+15nw0165100 0.0 101711
05:00+14wnw1172100 0.0 101710
08:00+13nnw1175100 0.0 101810
11:00+23nnw2243100 0.0 1019643
14:00+28nw442597 0.0 10171788
17:00+29nw44205 0.0 10151979
20:00+20n33315 0.0 101619
6 october, thu
thu623:00+17nne34365 0.0 101847
02:00+14nne22450 0.0 101819
05:00+12nne22490 0.0 101811
08:00+13n22480 0.0 101922
11:00+25nnw22250 0.0 1020627
14:00+29nw44160 0.0 10181895
17:00+30nw34160 0.0 10172029
20:00+21nnw22280 0.0 101811
7 october, fri
fri723:00+18n22380 0.0 101916
02:00+16n22457 0.0 101911
05:00+14n115154 0.0 101911
08:00+15wnw01512 0.0 102111
11:00+27nw23254 0.0 1021628
14:00+31nw3419100 0.0 10192504
17:00+31nw452074 0.0 10172786
20:00+23nw343379 0.0 101841
8 october, sat
sat823:00+21nnw353983 0.0 101977
02:00+19n484911 0.0 1020142
05:00+16nne37665 0.0 1020114
08:00+15n377880 0.0 1022124
11:00+24n444289 0.0 1023648
14:00+29nw442789 0.0 10201919
17:00+29nw442262 0.0 10192162
20:00+20n410361 0.0 1020179